Location: *
(28.3744°N, 81.5492°W)
Time: 03:58:54
(UTC+00:00)

Cosmos 1151 Rocket - Pass Details

Date: 15 June 2025
Orbit: 586 x 606 km, 82.5° (Epoch: 11 July)

Event Time Altitude Azimuth Distance (km) Brightness Sun altitude
Rises 00:53:50 0° 164° (SSE) 2,800 6.0 -6.4°
Reaches altitude 10° 00:56:10 10° 155° (SSE) 1,906 5.1 -6.9°
Maximum altitude 00:59:56 32° 91° (E) 1,012 3.7 -7.6°
Drops below altitude 10° 01:03:44 10° 28° (NNE) 1,925 5.7 -8.3°
Sets 01:06:06 0° 18° (NNE) 2,833 6.6 -8.7°
